Location: Vinland
(47.7731°N, 122.6974°W)
Time: 19:18:51
(UTC+00:00)

Vanguard 1 Rocket - Pass Details

Date: 23 March 2023
Orbit: 654 x 4221 km, 34.3° (Epoch: 29 May)

Event Time Altitude Azimuth Distance (km) Brightness Sun altitude
Rises 08:28:51 0° 242° (WSW) 8,009 12.0 -41.2°
Enters shadow 08:32:39 - 240° (WSW) 7,171 11.7 -41.1°
Exits shadow 09:02:13 - 108° (ESE) 3,836 10.5 -40.3°
Sets 09:04:16 0° 102° (ESE) 4,365 10.9 -40.2°
